Time,TemperatureF,DewpointF,PressureIn,WindDirection,WindDirectionDegrees,WindSpeedMPH,WindSpeedGustMPH,Humidity,HourlyPrecipIn,Conditions,Clouds,dailyrainin,SoftwareType,DateUTC
2013-06-13 00:03:00,61.2,60.9,29.75,North,353,5.0,16.0,99,0.00,RA,RA,0.00,WeatherDisplay:10.37,2013-06-13 05:03:00,
2013-06-13 00:13:00,60.8,60.6,29.76,NNE,17,7.0,18.0,99,0.00,OVC,OVC,0.00,WeatherDisplay:10.37,2013-06-13 05:13:00,
2013-06-13 00:23:00,60.5,60.2,29.76,NNE,16,9.0,18.0,99,0.00,OVC,OVC,0.00,WeatherDisplay:10.37,2013-06-13 05:23:00,
2013-06-13 00:33:00,60.3,60.0,29.75,NE,35,7.0,13.0,99,0.00,OVC,OVC,0.00,WeatherDisplay:10.37,2013-06-13 05:33:00,
2013-06-13 00:43:00,59.9,59.6,29.76,NNE,20,8.0,14.0,99,0.00,OVC,OVC,0.00,WeatherDisplay:10.37,2013-06-13 05:43:00,
2013-06-13 00:53:00,59.7,59.4,29.76,NE,38,5.0,10.0,99,0.00,OVC,OVC,0.00,WeatherDisplay:10.37,2013-06-13 05:53:00,
2013-06-13 01:03:00,59.5,59.3,29.76,North,350,5.0,10.0,99,0.00,FEW,FEW,0.00,WeatherDisplay:10.37,2013-06-13 06:03:00,
2013-06-13 01:13:00,59.4,59.1,29.77,North,349,0.0,9.0,99,0.00,FEW,FEW,0.00,WeatherDisplay:10.37,2013-06-13 06:13:00,
2013-06-13 01:23:00,59.4,59.1,29.78,NNW,347,2.0,8.0,99,0.00,FEW,FEW,0.00,WeatherDisplay:10.37,2013-06-13 06:23:00,
2013-06-13 01:33:00,59.4,59.1,29.78,North,351,1.0,7.0,99,0.00,FEW,FEW,0.00,WeatherDisplay:10.37,2013-06-13 06:33:00,
2013-06-13 01:43:00,59.2,58.9,29.79,NW,307,1.0,6.0,99,0.00,FEW,FEW,0.00,WeatherDisplay:10.37,2013-06-13 06:43:00,
2013-06-13 01:53:00,59.2,58.9,29.79,NW,318,1.0,7.0,99,0.00,FEW,FEW,0.00,WeatherDisplay:10.37,2013-06-13 06:53:00,
2013-06-13 02:03:00,59.2,58.9,29.79,NNW,339,1.0,8.0,99,0.00,SCT,SCT,0.00,WeatherDisplay:10.37,2013-06-13 07:03:00,
2013-06-13 02:13:00,59.2,58.9,29.79,NNW,344,3.0,9.0,99,0.00,SCT,SCT,0.00,WeatherDisplay:10.37,2013-06-13 07:13:00,
2013-06-13 02:23:00,59.0,58.7,29.80,NW,321,0.0,7.0,99,0.00,SCT,SCT,0.00,WeatherDisplay:10.37,2013-06-13 07:23:00,
2013-06-13 02:33:00,58.8,58.5,29.80,NNW,344,2.0,7.0,99,0.00,SCT,SCT,0.00,WeatherDisplay:10.37,2013-06-13 07:33:00,
2013-06-13 02:43:00,58.8,58.5,29.81,NNW,333,1.0,5.0,99,0.00,SCT,SCT,0.00,WeatherDisplay:10.37,2013-06-13 07:43:00,
2013-06-13 02:53:00,58.8,58.5,29.81,NW,308,2.0,5.0,99,0.00,SCT,SCT,0.00,WeatherDisplay:10.37,2013-06-13 07:53:00,
2013-06-13 03:03:00,58.8,58.5,29.82,WNW,302,0.0,3.0,99,0.00,BKN,BKN,0.00,WeatherDisplay:10.37,2013-06-13 08:03:00,
2013-06-13 03:13:00,59.0,58.7,29.81,North,351,2.0,6.0,99,0.00,BKN,BKN,0.00,WeatherDisplay:10.37,2013-06-13 08:13:00,
2013-06-13 03:23:00,59.0,58.7,29.82,NW,315,1.0,6.0,99,0.00,BKN,BKN,0.00,WeatherDisplay:10.37,2013-06-13 08:23:00,
2013-06-13 03:33:00,59.2,58.9,29.83,WNW,298,0.0,3.0,99,0.00,BKN,BKN,0.00,WeatherDisplay:10.37,2013-06-13 08:33:00,
2013-06-13 03:43:00,59.0,58.7,29.83,West,278,0.0,5.0,99,0.00,BKN,BKN,0.00,WeatherDisplay:10.37,2013-06-13 08:43:00,
2013-06-13 03:53:00,58.8,58.5,29.83,NW,320,1.0,5.0,99,0.00,BKN,BKN,0.00,WeatherDisplay:10.37,2013-06-13 08:53:00,
2013-06-13 04:03:00,58.5,58.2,29.83,NNW,328,1.0,3.0,99,0.00,SCT,SCT,0.00,WeatherDisplay:10.37,2013-06-13 09:03:00,
2013-06-13 04:13:00,58.3,58.0,29.84,NW,319,1.0,3.0,99,0.00,SCT,SCT,0.00,WeatherDisplay:10.37,2013-06-13 09:13:00,
2013-06-13 04:23:00,58.3,58.0,29.83,North,4,3.0,7.0,99,0.00,SCT,SCT,0.00,WeatherDisplay:10.37,2013-06-13 09:23:00,
2013-06-13 04:33:00,58.3,58.0,29.83,NNW,340,1.0,5.0,99,0.00,SCT,SCT,0.00,WeatherDisplay:10.37,2013-06-13 09:33:00,
2013-06-13 04:43:00,58.1,57.8,29.84,NW,318,1.0,6.0,99,0.00,SCT,SCT,0.00,WeatherDisplay:10.37,2013-06-13 09:43:00,
2013-06-13 04:53:00,58.1,57.8,29.85,WNW,300,0.0,7.0,99,0.00,SCT,SCT,0.00,WeatherDisplay:10.37,2013-06-13 09:53:00,
2013-06-13 05:03:00,58.1,57.8,29.85,WNW,300,0.0,7.0,99,0.00,CLR,CLR,0.00,WeatherDisplay:10.37,2013-06-13 10:03:00,
2013-06-13 05:13:00,58.0,57.7,29.86,NNW,337,0.0,3.0,99,0.00,CLR,CLR,0.00,WeatherDisplay:10.37,2013-06-13 10:13:00,
2013-06-13 05:23:00,57.7,57.5,29.86,NNW,329,1.0,5.0,99,0.00,CLR,CLR,0.00,WeatherDisplay:10.37,2013-06-13 10:23:00,
2013-06-13 05:33:00,57.7,57.5,29.87,NNW,347,0.0,2.0,99,0.00,CLR,CLR,0.00,WeatherDisplay:10.37,2013-06-13 10:33:00,
2013-06-13 05:43:00,57.7,57.5,29.87,North,354,0.0,5.0,99,0.00,CLR,CLR,0.00,WeatherDisplay:10.37,2013-06-13 10:43:00,
2013-06-13 05:53:00,58.3,58.0,29.88,NNW,348,0.0,3.0,99,0.00,CLR,CLR,0.00,WeatherDisplay:10.37,2013-06-13 10:53:00,
2013-06-13 06:03:00,59.4,59.1,29.89,NE,37,2.0,5.0,99,0.00,FEW,FEW,0.00,WeatherDisplay:10.37,2013-06-13 11:03:00,
2013-06-13 06:13:00,61.0,59.8,29.89,NNE,22,0.0,3.0,96,0.00,FEW,FEW,0.00,WeatherDisplay:10.37,2013-06-13 11:13:00,
2013-06-13 06:23:00,62.7,59.1,29.90,NNW,328,2.0,6.0,88,0.00,FEW,FEW,0.00,WeatherDisplay:10.37,2013-06-13 11:23:00,
2013-06-13 06:33:00,64.1,58.4,29.90,NNW,341,3.0,8.0,82,0.00,FEW,FEW,0.00,WeatherDisplay:10.37,2013-06-13 11:33:00,
2013-06-13 06:43:00,65.3,58.6,29.90,North,356,0.0,8.0,79,0.00,FEW,FEW,0.00,WeatherDisplay:10.37,2013-06-13 11:43:00,
2013-06-13 06:53:00,66.5,58.7,29.90,NNE,15,3.0,9.0,76,0.00,FEW,FEW,0.00,WeatherDisplay:10.37,2013-06-13 11:53:00,
2013-06-13 07:03:00,66.9,58.7,29.90,NNW,339,2.0,9.0,75,0.00,CLR,CLR,0.00,WeatherDisplay:10.37,2013-06-13 12:03:00,
2013-06-13 07:13:00,67.6,59.1,29.91,NNW,334,1.0,9.0,74,0.00,CLR,CLR,0.00,WeatherDisplay:10.37,2013-06-13 12:13:00,
2013-06-13 07:23:00,69.2,59.4,29.91,North,349,1.0,13.0,71,0.00,CLR,CLR,0.00,WeatherDisplay:10.37,2013-06-13 12:23:00,
2013-06-13 07:33:00,69.6,59.0,29.92,NW,323,1.0,9.0,69,0.00,CLR,CLR,0.00,WeatherDisplay:10.37,2013-06-13 12:33:00,
2013-06-13 07:43:00,69.7,58.7,29.92,North,355,3.0,13.0,68,0.00,CLR,CLR,0.00,WeatherDisplay:10.37,2013-06-13 12:43:00,
2013-06-13 07:53:00,68.9,58.7,29.93,North,2,5.0,12.0,70,0.00,CLR,CLR,0.00,WeatherDisplay:10.37,2013-06-13 12:53:00,
2013-06-13 08:03:00,69.3,58.2,29.93,North,4,6.0,15.0,68,0.00,SCT,SCT,0.00,WeatherDisplay:10.37,2013-06-13 13:03:00,
2013-06-13 08:13:00,70.0,59.7,29.93,NNW,344,2.0,13.0,70,0.00,SCT,SCT,0.00,WeatherDisplay:10.37,2013-06-13 13:13:00,
2013-06-13 08:23:00,70.3,58.4,29.94,NNE,21,5.0,17.0,66,0.00,SCT,SCT,0.00,WeatherDisplay:10.37,2013-06-13 13:23:00,
2013-06-13 08:33:00,70.7,57.9,29.93,North,356,5.0,13.0,64,0.00,SCT,SCT,0.00,WeatherDisplay:10.37,2013-06-13 13:33:00,
2013-06-13 08:43:00,69.6,57.3,29.94,NNW,342,5.0,16.0,65,0.00,SCT,SCT,0.00,WeatherDisplay:10.37,2013-06-13 13:43:00,
2013-06-13 08:53:00,68.6,57.2,29.94,North,3,6.0,21.0,67,0.00,SCT,SCT,0.00,WeatherDisplay:10.37,2013-06-13 13:53:00,
2013-06-13 09:03:00,70.0,56.8,29.94,NNE,13,13.0,21.0,63,0.00,FEW,FEW,0.00,WeatherDisplay:10.37,2013-06-13 14:03:00,
2013-06-13 09:13:00,71.5,56.9,29.94,North,8,9.0,15.0,60,0.00,FEW,FEW,0.00,WeatherDisplay:10.37,2013-06-13 14:13:00,
2013-06-13 09:23:00,72.3,58.1,29.95,NNE,17,5.0,16.0,61,0.00,FEW,FEW,0.00,WeatherDisplay:10.37,2013-06-13 14:23:00,
2013-06-13 09:33:00,72.4,57.7,29.95,NNW,346,6.0,18.0,60,0.00,FEW,FEW,0.00,WeatherDisplay:10.37,2013-06-13 14:33:00,
2013-06-13 09:43:00,72.8,59.0,29.95,NE,38,2.0,13.0,62,0.00,FEW,FEW,0.00,WeatherDisplay:10.37,2013-06-13 14:43:00,
2013-06-13 09:53:00,74.7,58.9,29.95,North,349,5.0,10.0,58,0.00,FEW,FEW,0.00,WeatherDisplay:10.37,2013-06-13 14:53:00,
2013-06-13 10:03:00,73.2,59.0,29.95,North,4,6.0,14.0,61,0.00,SCT,SCT,0.00,WeatherDisplay:10.37,2013-06-13 15:03:00,
2013-06-13 10:13:00,74.2,59.9,29.95,NNW,348,2.0,12.0,61,0.00,SCT,SCT,0.00,WeatherDisplay:10.37,2013-06-13 15:13:00,
2013-06-13 10:23:00,74.0,59.2,29.95,NNE,21,5.0,15.0,60,0.00,SCT,SCT,0.00,WeatherDisplay:10.37,2013-06-13 15:23:00,
2013-06-13 10:33:00,75.5,59.2,29.95,North,351,3.0,13.0,57,0.00,SCT,SCT,0.00,WeatherDisplay:10.37,2013-06-13 15:33:00,
2013-06-13 10:43:00,75.0,58.8,29.96,North,11,7.0,14.0,57,0.00,SCT,SCT,0.00,WeatherDisplay:10.37,2013-06-13 15:43:00,
2013-06-13 10:53:00,74.5,58.7,29.96,North,9,8.0,18.0,58,0.00,SCT,SCT,0.00,WeatherDisplay:10.37,2013-06-13 15:53:00,
2013-06-13 11:03:00,75.2,59.4,29.97,NNE,25,3.0,16.0,58,0.00,FEW,FEW,0.00,WeatherDisplay:10.37,2013-06-13 16:03:00,
2013-06-13 11:13:00,76.5,59.1,29.97,NNW,329,2.0,9.0,55,0.00,FEW,FEW,0.00,WeatherDisplay:10.37,2013-06-13 16:13:00,
2013-06-13 11:23:00,75.6,57.8,29.97,NNW,340,7.0,17.0,54,0.00,FEW,FEW,0.00,WeatherDisplay:10.37,2013-06-13 16:23:00,
2013-06-13 11:33:00,75.9,59.1,29.97,NNW,340,1.0,12.0,56,0.00,FEW,FEW,0.00,WeatherDisplay:10.37,2013-06-13 16:33:00,
2013-06-13 11:43:00,76.0,58.1,29.98,NW,310,2.0,18.0,54,0.00,FEW,FEW,0.00,WeatherDisplay:10.37,2013-06-13 16:43:00,
2013-06-13 11:53:00,75.4,59.1,29.98,North,0,6.0,20.0,57,0.00,FEW,FEW,0.00,WeatherDisplay:10.37,2013-06-13 16:53:00,
2013-06-13 12:03:00,76.5,59.1,29.97,NNW,332,5.0,14.0,55,0.00,FEW,FEW,0.00,WeatherDisplay:10.37,2013-06-13 17:03:00,
2013-06-13 12:13:00,76.8,58.4,29.98,NW,316,3.0,13.0,53,0.00,FEW,FEW,0.00,WeatherDisplay:10.37,2013-06-13 17:13:00,
2013-06-13 12:23:00,77.3,58.3,29.98,NNW,334,1.0,14.0,52,0.00,FEW,FEW,0.00,WeatherDisplay:10.37,2013-06-13 17:23:00,
2013-06-13 12:33:00,77.5,57.4,29.98,WNW,303,1.0,7.0,50,0.00,FEW,FEW,0.00,WeatherDisplay:10.37,2013-06-13 17:33:00,
2013-06-13 12:43:00,77.4,58.9,29.98,WNW,291,1.0,5.0,53,0.00,FEW,FEW,0.00,WeatherDisplay:10.37,2013-06-13 17:43:00,
2013-06-13 12:53:00,78.5,57.7,29.99,NW,315,2.0,17.0,49,0.00,FEW,FEW,0.00,WeatherDisplay:10.37,2013-06-13 17:53:00,
2013-06-13 13:03:00,77.2,57.1,29.99,NW,308,1.0,6.0,50,0.00,BKN,BKN,0.00,WeatherDisplay:10.37,2013-06-13 18:03:00,
2013-06-13 13:13:00,76.8,57.3,29.98,WNW,294,1.0,10.0,51,0.00,BKN,BKN,0.00,WeatherDisplay:10.37,2013-06-13 18:13:00,
2013-06-13 13:23:00,78.5,56.6,29.98,West,280,0.0,12.0,47,0.00,BKN,BKN,0.00,WeatherDisplay:10.37,2013-06-13 18:23:00,
2013-06-13 13:33:00,76.6,57.6,29.98,NW,311,5.0,18.0,52,0.00,BKN,BKN,0.00,WeatherDisplay:10.37,2013-06-13 18:33:00,
2013-06-13 13:43:00,77.9,57.8,29.98,NW,313,2.0,12.0,50,0.00,BKN,BKN,0.00,WeatherDisplay:10.37,2013-06-13 18:43:00,
2013-06-13 13:53:00,78.4,55.9,29.97,NW,325,6.0,14.0,46,0.00,BKN,BKN,0.00,WeatherDisplay:10.37,2013-06-13 18:53:00,
2013-06-13 14:03:00,79.3,56.2,29.97,NW,319,3.0,9.0,45,0.00,SCT,SCT,0.00,WeatherDisplay:10.37,2013-06-13 19:03:00,
2013-06-13 14:13:00,80.1,57.4,29.97,NW,318,7.0,22.0,46,0.00,SCT,SCT,0.00,WeatherDisplay:10.37,2013-06-13 19:13:00,
2013-06-13 14:23:00,80.0,56.2,29.97,NW,309,3.0,14.0,44,0.00,SCT,SCT,0.00,WeatherDisplay:10.37,2013-06-13 19:23:00,
2013-06-13 14:33:00,79.5,58.1,29.97,NW,317,3.0,12.0,48,0.00,SCT,SCT,0.00,WeatherDisplay:10.37,2013-06-13 19:33:00,
2013-06-13 14:43:00,79.3,57.3,29.97,NW,305,3.0,15.0,47,0.00,SCT,SCT,0.00,WeatherDisplay:10.37,2013-06-13 19:43:00,
2013-06-13 14:53:00,79.0,58.8,29.97,NW,322,5.0,16.0,50,0.00,SCT,SCT,0.00,WeatherDisplay:10.37,2013-06-13 19:53:00,
2013-06-13 15:03:00,79.0,58.2,29.97,North,352,3.0,15.0,49,0.00,BKN,BKN,0.00,WeatherDisplay:10.37,2013-06-13 20:03:00,
2013-06-13 15:13:00,79.5,56.3,29.98,NNW,327,12.0,23.0,45,0.00,BKN,BKN,0.00,WeatherDisplay:10.37,2013-06-13 20:13:00,
2013-06-13 15:23:00,78.3,56.9,29.97,NNW,336,3.0,17.0,48,0.00,BKN,BKN,0.00,WeatherDisplay:10.37,2013-06-13 20:23:00,
2013-06-13 15:33:00,79.2,56.6,29.98,NNW,329,7.0,20.0,46,0.00,BKN,BKN,0.00,WeatherDisplay:10.37,2013-06-13 20:33:00,
2013-06-13 15:43:00,80.1,54.2,29.97,WNW,285,6.0,15.0,41,0.00,BKN,BKN,0.00,WeatherDisplay:10.37,2013-06-13 20:43:00,
2013-06-13 15:53:00,79.0,57.0,29.97,NNE,16,7.0,22.0,47,0.00,BKN,BKN,0.00,WeatherDisplay:10.37,2013-06-13 20:53:00,
2013-06-13 16:03:00,78.8,58.1,29.97,NNE,14,2.0,14.0,49,0.00,SCT,SCT,0.00,WeatherDisplay:10.37,2013-06-13 21:03:00,
2013-06-13 16:13:00,79.5,55.7,29.98,NNE,21,6.0,18.0,44,0.00,SCT,SCT,0.00,WeatherDisplay:10.37,2013-06-13 21:13:00,
2013-06-13 16:23:00,79.6,55.2,29.98,NW,319,7.0,18.0,43,0.00,SCT,SCT,0.00,WeatherDisplay:10.37,2013-06-13 21:23:00,
2013-06-13 16:33:00,79.7,55.9,29.97,NNW,346,5.0,20.0,44,0.00,SCT,SCT,0.00,WeatherDisplay:10.37,2013-06-13 21:33:00,
2013-06-13 16:43:00,79.7,55.2,29.98,NW,323,7.0,21.0,43,0.00,SCT,SCT,0.00,WeatherDisplay:10.37,2013-06-13 21:43:00,
2013-06-13 16:53:00,79.9,54.7,29.97,North,0,8.0,20.0,42,0.00,SCT,SCT,0.00,WeatherDisplay:10.37,2013-06-13 21:53:00,
2013-06-13 17:03:00,80.4,54.6,29.97,North,353,8.0,26.0,41,0.00,SCT,SCT,0.00,WeatherDisplay:10.37,2013-06-13 22:03:00,
2013-06-13 17:13:00,79.5,54.4,29.97,North,11,10.0,21.0,42,0.00,SCT,SCT,0.00,WeatherDisplay:10.37,2013-06-13 22:13:00,
2013-06-13 17:23:00,80.4,55.2,29.97,NW,325,3.0,15.0,42,0.00,SCT,SCT,0.00,WeatherDisplay:10.37,2013-06-13 22:23:00,
2013-06-13 17:33:00,79.2,55.4,29.97,ENE,59,7.0,23.0,44,0.00,SCT,SCT,0.00,WeatherDisplay:10.37,2013-06-13 22:33:00,
2013-06-13 17:43:00,78.7,55.6,29.97,North,350,12.0,25.0,45,0.00,SCT,SCT,0.00,WeatherDisplay:10.37,2013-06-13 22:43:00,
2013-06-13 17:53:00,77.4,56.1,29.97,NE,42,7.0,21.0,48,0.00,SCT,SCT,0.00,WeatherDisplay:10.37,2013-06-13 22:53:00,
2013-06-13 18:03:00,78.4,55.3,29.98,North,353,6.0,15.0,45,0.00,SCT,SCT,0.00,WeatherDisplay:10.37,2013-06-13 23:03:00,
2013-06-13 18:13:00,78.0,55.5,29.98,NW,323,1.0,12.0,46,0.00,SCT,SCT,0.00,WeatherDisplay:10.37,2013-06-13 23:13:00,
2013-06-13 18:23:00,77.8,56.0,29.98,North,354,3.0,16.0,47,0.00,SCT,SCT,0.00,WeatherDisplay:10.37,2013-06-13 23:23:00,
2013-06-13 18:33:00,77.7,56.5,29.99,NE,40,3.0,16.0,48,0.00,SCT,SCT,0.00,WeatherDisplay:10.37,2013-06-13 23:33:00,
2013-06-13 18:43:00,77.2,58.2,29.99,ENE,59,6.0,14.0,52,0.00,SCT,SCT,0.00,WeatherDisplay:10.37,2013-06-13 23:43:00,
2013-06-13 18:53:00,75.0,57.7,29.99,ENE,72,6.0,13.0,55,0.00,SCT,SCT,0.00,WeatherDisplay:10.37,2013-06-13 23:53:00,
2013-06-13 19:03:00,74.1,57.4,29.99,NE,36,3.0,12.0,56,0.00,FEW,FEW,0.00,WeatherDisplay:10.37,2013-06-14 00:03:00,
2013-06-13 19:13:00,74.1,56.9,30.00,NE,52,6.0,14.0,55,0.00,FEW,FEW,0.00,WeatherDisplay:10.37,2013-06-14 00:13:00,
2013-06-13 19:23:00,73.8,57.1,30.00,NE,52,6.0,17.0,56,0.00,FEW,FEW,0.00,WeatherDisplay:10.37,2013-06-14 00:23:00,
2013-06-13 19:33:00,73.0,56.9,30.01,NE,37,3.0,13.0,57,0.00,FEW,FEW,0.00,WeatherDisplay:10.37,2013-06-14 00:33:00,
2013-06-13 19:43:00,72.6,57.0,30.01,NE,49,0.0,7.0,58,0.00,FEW,FEW,0.00,WeatherDisplay:10.37,2013-06-14 00:43:00,
2013-06-13 19:53:00,72.5,56.9,30.01,NE,41,3.0,8.0,58,0.00,FEW,FEW,0.00,WeatherDisplay:10.37,2013-06-14 00:53:00,
2013-06-13 20:03:00,72.0,57.8,30.01,NE,40,1.0,3.0,61,0.00,FEW,FEW,0.00,WeatherDisplay:10.37,2013-06-14 01:03:00,
2013-06-13 20:13:00,71.3,57.6,30.02,ESE,103,1.0,3.0,62,0.00,FEW,FEW,0.00,WeatherDisplay:10.37,2013-06-14 01:13:00,
2013-06-13 20:23:00,70.7,58.0,30.02,ESE,104,0.0,3.0,64,0.00,FEW,FEW,0.00,WeatherDisplay:10.37,2013-06-14 01:23:00,
2013-06-13 20:33:00,70.2,58.3,30.02,SE,130,0.0,2.0,66,0.00,FEW,FEW,0.00,WeatherDisplay:10.37,2013-06-14 01:33:00,
2013-06-13 20:43:00,69.6,58.2,30.02,ESE,114,0.0,3.0,67,0.00,FEW,FEW,0.00,WeatherDisplay:10.37,2013-06-14 01:43:00,
2013-06-13 20:53:00,69.1,58.5,30.02,East,90,1.0,3.0,69,0.00,FEW,FEW,0.00,WeatherDisplay:10.37,2013-06-14 01:53:00,
2013-06-13 21:03:00,68.5,58.4,30.03,ESE,105,2.0,5.0,70,0.00,SCT,SCT,0.00,WeatherDisplay:10.37,2013-06-14 02:03:00,
2013-06-13 21:13:00,68.2,58.4,30.03,ESE,102,2.0,3.0,71,0.00,SCT,SCT,0.00,WeatherDisplay:10.37,2013-06-14 02:13:00,
2013-06-13 21:23:00,68.0,58.2,30.04,SE,135,1.0,2.0,71,0.00,SCT,SCT,0.00,WeatherDisplay:10.37,2013-06-14 02:23:00,
2013-06-13 21:33:00,67.3,57.9,30.03,SE,135,0.0,2.0,72,0.00,SCT,SCT,0.00,WeatherDisplay:10.37,2013-06-14 02:33:00,
2013-06-13 21:43:00,66.6,58.1,30.03,SE,135,1.0,2.0,74,0.00,SCT,SCT,0.00,WeatherDisplay:10.37,2013-06-14 02:43:00,
2013-06-13 21:53:00,66.0,57.9,30.04,SE,135,1.0,2.0,75,0.00,SCT,SCT,0.00,WeatherDisplay:10.37,2013-06-14 02:53:00,
2013-06-13 22:03:00,65.7,57.9,30.04,SE,135,0.0,2.0,76,0.00,FEW,FEW,0.00,WeatherDisplay:10.37,2013-06-14 03:03:00,
2013-06-13 22:13:00,65.5,57.7,30.03,SE,135,0.0,2.0,76,0.00,FEW,FEW,0.00,WeatherDisplay:10.37,2013-06-14 03:13:00,
2013-06-13 22:23:00,64.8,57.4,30.04,SE,135,0.0,0.0,77,0.00,FEW,FEW,0.00,WeatherDisplay:10.37,2013-06-14 03:23:00,
2013-06-13 22:33:00,64.2,57.2,30.04,SE,135,0.0,0.0,78,0.00,FEW,FEW,0.00,WeatherDisplay:10.37,2013-06-14 03:33:00,
2013-06-13 22:43:00,63.9,57.6,30.03,SE,135,0.0,0.0,80,0.00,FEW,FEW,0.00,WeatherDisplay:10.37,2013-06-14 03:43:00,
2013-06-13 22:53:00,63.5,57.6,30.04,NE,48,0.0,2.0,81,0.00,FEW,FEW,0.00,WeatherDisplay:10.37,2013-06-14 03:53:00,
2013-06-13 23:03:00,63.3,57.7,30.04,NE,45,0.0,2.0,82,0.00,FEW,FEW,0.00,WeatherDisplay:10.37,2013-06-14 04:03:00,
2013-06-13 23:13:00,63.1,57.6,30.04,NE,45,0.0,2.0,82,0.00,FEW,FEW,0.00,WeatherDisplay:10.37,2013-06-14 04:13:00,
2013-06-13 23:23:00,62.8,57.9,30.05,ENE,78,2.0,3.0,84,0.00,FEW,FEW,0.00,WeatherDisplay:10.37,2013-06-14 04:23:00,
2013-06-13 23:33:00,62.8,58.2,30.05,ENE,69,1.0,10.0,85,0.00,FEW,FEW,0.00,WeatherDisplay:10.37,2013-06-14 04:33:00,
2013-06-13 23:43:00,63.1,58.9,30.05,East,80,1.0,9.0,86,0.00,FEW,FEW,0.00,WeatherDisplay:10.37,2013-06-14 04:43:00,
2013-06-13 23:53:00,62.6,58.7,30.05,East,89,2.0,9.0,87,0.00,FEW,FEW,0.00,WeatherDisplay:10.37,2013-06-14 04:53:00,